TimeMST,TemperatureF,Dew PointF,Humidity,Sea Level PressureIn,VisibilityMPH,Wind Direction,Wind SpeedMPH,Gust SpeedMPH,PrecipitationIn,Events,Conditions,WindDirDegrees,DateUTC
12:52 AM,41.0,27.0,57,29.87,10.0,NNW,11.5,-,N/A,,Overcast,330,2013-02-05 07:52:00
1:52 AM,42.1,26.1,53,29.88,-9999.0,NW,13.8,-,N/A,,Overcast,310,2013-02-05 08:52:00
2:52 AM,39.9,26.1,58,29.91,-9999.0,NW,10.4,-,N/A,,Overcast,320,2013-02-05 09:52:00
3:52 AM,37.9,26.1,62,29.93,-9999.0,NNW,9.2,-,N/A,,Overcast,340,2013-02-05 10:52:00
4:52 AM,37.9,27.0,65,29.95,-9999.0,North,9.2,-,N/A,,Overcast,360,2013-02-05 11:52:00
5:52 AM,36.0,27.0,70,29.97,10.0,North,9.2,-,N/A,,Overcast,350,2013-02-05 12:52:00
6:52 AM,36.0,25.0,64,30.00,10.0,North,13.8,-,N/A,,Overcast,350,2013-02-05 13:52:00
7:52 AM,36.0,25.0,64,30.03,10.0,North,10.4,-,N/A,,Overcast,350,2013-02-05 14:52:00
8:52 AM,37.9,24.1,57,30.04,10.0,NNW,10.4,-,N/A,,Overcast,340,2013-02-05 15:52:00
9:52 AM,41.0,24.1,51,30.03,10.0,NW,6.9,-,N/A,,Scattered Clouds,320,2013-02-05 16:52:00
10:52 AM,44.1,26.1,49,30.03,10.0,North,-9999.0,-,N/A,,Unknown,0,2013-02-05 17:52:00
11:52 AM,46.0,24.1,42,29.98,10.0,East,4.6,-,N/A,,Clear,100,2013-02-05 18:52:00
12:52 PM,48.0,26.1,42,29.94,10.0,South,6.9,-,N/A,,Mostly Cloudy,170,2013-02-05 19:52:00
1:52 PM,48.0,25.0,41,29.91,10.0,SE,10.4,-,N/A,,Mostly Cloudy,140,2013-02-05 20:52:00
2:52 PM,46.0,25.0,44,29.90,10.0,SE,11.5,-,N/A,,Overcast,140,2013-02-05 21:52:00
3:52 PM,45.0,25.0,46,29.89,10.0,ESE,11.5,-,N/A,,Scattered Clouds,120,2013-02-05 22:52:00
4:52 PM,41.0,26.1,55,29.88,10.0,ESE,10.4,-,N/A,,Clear,120,2013-02-05 23:52:00
5:52 PM,42.1,24.1,49,29.88,10.0,SSW,6.9,-,N/A,,Mostly Cloudy,200,2013-02-06 00:52:00
6:52 PM,37.0,23.0,57,29.89,10.0,SSE,5.8,-,N/A,,Clear,160,2013-02-06 01:52:00
7:52 PM,34.0,24.1,67,29.89,10.0,ESE,4.6,-,N/A,,Clear,120,2013-02-06 02:52:00
8:52 PM,32.0,25.0,75,29.87,10.0,SSE,6.9,-,N/A,,Clear,150,2013-02-06 03:52:00
9:52 PM,32.0,24.1,73,29.84,10.0,South,6.9,-,N/A,,Clear,170,2013-02-06 04:52:00
10:52 PM,30.9,23.0,72,29.82,10.0,SSE,6.9,-,N/A,,Clear,160,2013-02-06 05:52:00
11:52 PM,28.9,23.0,78,29.81,-9999.0,Calm,Calm,-,N/A,,Clear,0,2013-02-06 06:52:00